N465TW MMAA-MMGL

Flight info

Callsign N465TW
Flight time 0h 56m
Altitude 32000
Route AGLON1A AGLON UT145 IGSON IGSON1B
Aircraft B732/M-SDFGIRWY/S

Departure

Time 2026-04-27 19:13
Airport General Juan N. Álvarez International Airport (MMAA)

Arrival

Time 2026-04-27 20:09
Airport Guadalajara International Airport (MMGL)
Time Latitude Longitude Altitude Speed Heading
2026-04-27 18:25 16.75949 -99.75505 25 ft 0 kts 198°
2026-04-27 18:54 16.75963 -99.75500 25 ft 2 kts 198°
2026-04-27 18:54 16.75977 -99.75496 25 ft 2 kts 198°
2026-04-27 18:54 16.75991 -99.75491 25 ft 2 kts 198°
2026-04-27 18:55 16.76005 -99.75486 25 ft 2 kts 198°
2026-04-27 18:55 16.76018 -99.75482 25 ft 1 kts 209°
2026-04-27 18:55 16.76023 -99.75474 25 ft 1 kts 268°
2026-04-27 18:55 16.76022 -99.75468 25 ft 1 kts 298°
2026-04-27 18:56 16.76019 -99.75463 25 ft 0 kts 289°
2026-04-27 19:09 16.76021 -99.75467 25 ft 0 kts 289°
2026-04-27 19:09 16.76022 -99.75470 25 ft 0 kts 289°
2026-04-27 19:09 16.76027 -99.75487 25 ft 7 kts 288°
2026-04-27 19:10 16.76049 -99.75557 25 ft 12 kts 287°
2026-04-27 19:10 16.76078 -99.75652 25 ft 13 kts 288°
2026-04-27 19:10 16.76097 -99.75747 25 ft 12 kts 249°
2026-04-27 19:10 16.76057 -99.75794 25 ft 13 kts 239°
2026-04-27 19:11 16.76084 -99.75941 25 ft 17 kts 287°
2026-04-27 19:11 16.76119 -99.76056 25 ft 16 kts 288°
2026-04-27 19:11 16.76154 -99.76166 25 ft 15 kts 287°
2026-04-27 19:11 16.76141 -99.76244 25 ft 11 kts 219°
2026-04-27 19:12 16.76072 -99.76275 25 ft 11 kts 197°
2026-04-27 19:12 16.76001 -99.76286 25 ft 7 kts 146°
2026-04-27 19:12 16.75938 -99.76122 25 ft 54 kts 108°
2026-04-27 19:12 16.75746 -99.75506 25 ft 121 kts 108°
2026-04-27 19:13 16.75428 -99.74476 81 ft 171 kts 109°
2026-04-27 19:13 16.75089 -99.73274 634 ft 181 kts 107°
2026-04-27 19:13 16.74759 -99.71946 1165 ft 197 kts 105°
2026-04-27 19:13 16.74340 -99.70573 1796 ft 206 kts 115°
2026-04-27 19:14 16.73708 -99.69190 2482 ft 218 kts 115°
2026-04-27 19:14 16.73100 -99.67759 3405 ft 217 kts 112°
2026-04-27 19:14 16.72547 -99.66265 3970 ft 229 kts 109°
2026-04-27 19:14 16.72121 -99.64599 4388 ft 247 kts 98°
2026-04-27 19:15 16.72029 -99.62785 4975 ft 257 kts 86°
2026-04-27 19:15 16.72290 -99.60957 5732 ft 260 kts 76°
2026-04-27 19:15 16.72893 -99.59164 6317 ft 269 kts 65°
2026-04-27 19:15 16.73903 -99.57430 6579 ft 293 kts 46°
2026-04-27 19:16 16.75649 -99.56300 7130 ft 302 kts 16°
2026-04-27 19:16 16.77009 -99.56111 7700 ft 301 kts 358°
2026-04-27 19:16 16.79565 -99.57076 8780 ft 300 kts 321°
2026-04-27 19:16 16.80876 -99.58736 9548 ft 300 kts 302°
2026-04-27 19:17 16.81925 -99.60631 10115 ft 307 kts 300°
2026-04-27 19:17 16.82966 -99.62604 10553 ft 318 kts 300°
2026-04-27 19:17 16.84343 -99.64435 10933 ft 326 kts 323°
2026-04-27 19:17 16.86326 -99.65608 11322 ft 334 kts 340°
2026-04-27 19:18 16.88519 -99.66406 11793 ft 340 kts 347°
2026-04-27 19:18 16.90824 -99.67033 12334 ft 345 kts 347°
2026-04-27 19:18 16.93141 -99.67754 12917 ft 349 kts 344°
2026-04-27 19:18 16.95425 -99.68582 13514 ft 351 kts 342°
2026-04-27 19:19 16.97690 -99.69465 14082 ft 352 kts 341°
2026-04-27 19:19 16.99973 -99.70370 14609 ft 355 kts 341°
2026-04-27 19:19 17.02295 -99.71280 15111 ft 357 kts 341°
2026-04-27 19:19 17.04620 -99.72182 15590 ft 360 kts 341°
2026-04-27 19:20 17.07003 -99.72993 16068 ft 362 kts 346°
2026-04-27 19:20 17.09451 -99.73627 16556 ft 364 kts 349°
2026-04-27 19:20 17.11941 -99.74184 17041 ft 366 kts 349°
2026-04-27 19:20 17.14416 -99.74728 17499 ft 368 kts 349°
2026-04-27 19:21 17.16905 -99.75318 17939 ft 371 kts 343°
2026-04-27 19:21 17.19245 -99.76444 18361 ft 375 kts 333°
2026-04-27 19:21 17.21420 -99.77942 18757 ft 379 kts 317°
2026-04-27 19:21 17.22969 -99.80190 19142 ft 383 kts 294°
2026-04-27 19:22 17.23781 -99.82811 19545 ft 385 kts 286°
2026-04-27 19:22 17.24651 -99.85482 19942 ft 387 kts 291°
2026-04-27 19:22 17.25624 -99.88077 20320 ft 389 kts 292°
2026-04-27 19:22 17.26624 -99.90717 20685 ft 391 kts 292°
2026-04-27 19:23 17.27604 -99.93361 21043 ft 393 kts 291°
2026-04-27 19:23 17.28570 -99.96043 21415 ft 394 kts 291°
2026-04-27 19:23 17.29521 -99.98750 21767 ft 396 kts 290°
2026-04-27 19:23 17.30455 -100.01463 22097 ft 398 kts 290°
2026-04-27 19:24 17.31375 -100.04159 22411 ft 400 kts 290°
2026-04-27 19:24 17.32306 -100.06897 22721 ft 402 kts 290°
2026-04-27 19:24 17.33247 -100.09658 23027 ft 403 kts 290°
2026-04-27 19:24 17.34197 -100.12431 23328 ft 405 kts 290°
2026-04-27 19:25 17.35162 -100.15222 23624 ft 407 kts 290°
2026-04-27 19:25 17.36133 -100.18013 23909 ft 408 kts 290°
2026-04-27 19:25 17.37109 -100.20801 24187 ft 410 kts 291°
2026-04-27 19:25 17.38099 -100.23613 24479 ft 411 kts 291°
2026-04-27 19:26 17.39082 -100.26399 24757 ft 412 kts 291°
2026-04-27 19:26 17.40245 -100.29129 25025 ft 412 kts 301°
2026-04-27 19:26 17.41939 -100.31555 25281 ft 412 kts 312°
2026-04-27 19:26 17.43955 -100.33651 25532 ft 413 kts 319°
2026-04-27 19:27 17.46157 -100.35556 25768 ft 414 kts 324°
2026-04-27 19:27 17.48512 -100.37290 25994 ft 415 kts 326°
2026-04-27 19:27 17.50847 -100.39020 26193 ft 415 kts 324°
2026-04-27 19:27 17.53162 -100.40846 26399 ft 417 kts 322°
2026-04-27 19:28 17.55434 -100.42757 26606 ft 418 kts 321°
2026-04-27 19:28 17.57628 -100.44693 26822 ft 418 kts 320°
2026-04-27 19:28 17.59817 -100.46679 27031 ft 419 kts 319°
2026-04-27 19:28 17.62018 -100.48695 27225 ft 420 kts 319°
2026-04-27 19:29 17.64232 -100.50717 27403 ft 421 kts 319°
2026-04-27 19:29 17.66446 -100.52718 27591 ft 421 kts 320°
2026-04-27 19:29 17.68673 -100.54705 27773 ft 422 kts 320°
2026-04-27 19:29 17.70901 -100.56667 27941 ft 423 kts 320°
2026-04-27 19:30 17.73167 -100.58643 28131 ft 424 kts 320°
2026-04-27 19:30 17.75433 -100.60606 28347 ft 423 kts 320°
2026-04-27 19:30 17.77683 -100.62546 28676 ft 420 kts 320°
2026-04-27 19:30 17.79939 -100.64487 29027 ft 416 kts 320°
2026-04-27 19:31 17.82147 -100.66387 29368 ft 412 kts 320°
2026-04-27 19:31 17.84349 -100.68285 29624 ft 411 kts 320°
2026-04-27 19:31 17.86559 -100.70195 29752 ft 413 kts 320°
2026-04-27 19:31 17.88778 -100.72118 29941 ft 412 kts 320°
2026-04-27 19:32 17.90953 -100.74007 30236 ft 409 kts 320°
2026-04-27 19:32 17.93141 -100.75912 30505 ft 407 kts 320°
2026-04-27 19:32 17.95290 -100.77786 30759 ft 404 kts 320°
2026-04-27 19:32 17.97444 -100.79662 30945 ft 404 kts 320°
2026-04-27 19:33 17.99602 -100.81541 31157 ft 402 kts 320°
2026-04-27 19:33 18.01049 -100.82761 31330 ft 401 kts 321°
2026-04-27 19:33 18.03910 -100.85188 31678 ft 397 kts 319°
2026-04-27 19:33 18.06014 -100.87028 31936 ft 394 kts 319°
2026-04-27 19:34 18.08120 -100.88882 31991 ft 396 kts 319°
2026-04-27 19:34 18.12361 -100.92612 32013 ft 398 kts 319°
2026-04-27 19:35 18.16598 -100.96310 31996 ft 398 kts 319°
2026-04-27 19:35 18.20861 -101.00012 31988 ft 398 kts 319°
2026-04-27 19:36 18.25128 -101.03715 31982 ft 399 kts 319°
2026-04-27 19:36 18.29398 -101.07421 31981 ft 401 kts 319°
2026-04-27 19:37 18.33688 -101.11153 31982 ft 402 kts 319°
2026-04-27 19:37 18.38007 -101.14913 31982 ft 403 kts 319°
2026-04-27 19:38 18.42303 -101.18660 31982 ft 404 kts 319°
2026-04-27 19:38 18.46641 -101.22446 31982 ft 406 kts 319°
2026-04-27 19:39 18.50962 -101.26217 31982 ft 407 kts 319°
2026-04-27 19:39 18.55329 -101.30031 31982 ft 408 kts 319°
2026-04-27 19:40 18.59686 -101.33839 32015 ft 408 kts 319°
2026-04-27 19:40 18.64010 -101.37613 32073 ft 407 kts 319°
2026-04-27 19:41 18.68383 -101.41438 32124 ft 407 kts 319°
2026-04-27 19:41 18.72712 -101.45232 32172 ft 407 kts 319°
2026-04-27 19:42 18.77067 -101.49052 32170 ft 408 kts 319°
2026-04-27 19:42 18.81399 -101.52849 32164 ft 409 kts 319°
2026-04-27 19:43 18.85780 -101.56690 32165 ft 409 kts 319°
2026-04-27 19:43 18.90134 -101.60504 32165 ft 410 kts 319°
2026-04-27 19:44 18.94530 -101.64365 32164 ft 411 kts 319°
2026-04-27 19:44 18.98925 -101.68233 32165 ft 412 kts 318°
2026-04-27 19:45 19.03291 -101.72081 32165 ft 413 kts 318°
2026-04-27 19:45 19.07692 -101.75956 32169 ft 414 kts 318°
2026-04-27 19:46 19.12107 -101.79844 32179 ft 414 kts 318°
2026-04-27 19:46 19.16557 -101.83763 32187 ft 415 kts 318°
2026-04-27 19:47 19.20977 -101.87657 32193 ft 416 kts 318°
2026-04-27 19:47 19.25418 -101.91581 32193 ft 417 kts 318°
2026-04-27 19:48 19.29835 -101.95488 32192 ft 417 kts 318°
2026-04-27 19:48 19.34301 -101.99433 32192 ft 418 kts 318°
2026-04-27 19:49 19.38771 -102.03320 32191 ft 420 kts 321°
2026-04-27 19:49 19.43799 -102.06519 32192 ft 423 kts 330°
2026-04-27 19:50 19.49102 -102.09152 32191 ft 423 kts 333°
2026-04-27 19:50 19.54492 -102.11628 32191 ft 422 kts 334°
2026-04-27 19:51 19.59827 -102.14130 32191 ft 421 kts 333°
2026-04-27 19:51 19.65107 -102.16716 32191 ft 419 kts 332°
2026-04-27 19:52 19.70357 -102.19355 32190 ft 418 kts 332°
2026-04-27 19:52 19.75578 -102.21997 32181 ft 418 kts 332°
2026-04-27 19:53 19.83431 -102.25951 32164 ft 417 kts 332°
2026-04-27 19:53 19.88487 -102.28866 32157 ft 409 kts 317°
2026-04-27 19:54 19.90324 -102.31105 32158 ft 397 kts 301°
2026-04-27 19:54 19.91578 -102.33646 32100 ft 389 kts 292°
2026-04-27 19:54 19.92566 -102.36304 31762 ft 383 kts 290°
2026-04-27 19:54 19.93577 -102.38892 31278 ft 381 kts 291°
2026-04-27 19:55 19.94567 -102.41492 30720 ft 381 kts 290°
2026-04-27 19:55 19.95487 -102.44109 30175 ft 380 kts 288°
2026-04-27 19:55 19.96354 -102.46774 29658 ft 379 kts 287°
2026-04-27 19:55 19.97159 -102.49385 29190 ft 376 kts 287°
2026-04-27 19:56 19.97951 -102.52029 28725 ft 374 kts 287°
2026-04-27 19:56 19.98737 -102.54667 28255 ft 372 kts 287°
2026-04-27 19:56 19.99523 -102.57257 27780 ft 370 kts 289°
2026-04-27 19:56 20.00731 -102.59655 27284 ft 371 kts 307°
2026-04-27 19:57 20.02551 -102.61578 26808 ft 372 kts 320°
2026-04-27 19:57 20.04685 -102.63120 26352 ft 372 kts 327°
2026-04-27 19:57 20.06942 -102.64417 25908 ft 371 kts 333°
2026-04-27 19:57 20.09303 -102.65538 25461 ft 369 kts 334°
2026-04-27 19:58 20.11622 -102.66663 25018 ft 367 kts 333°
2026-04-27 19:58 20.13978 -102.67688 24566 ft 367 kts 342°
2026-04-27 19:58 20.16367 -102.68533 24155 ft 363 kts 335°
2026-04-27 19:58 20.18516 -102.69708 24112 ft 337 kts 322°
2026-04-27 19:59 20.20032 -102.71459 24052 ft 309 kts 296°
2026-04-27 19:59 20.20834 -102.73474 23827 ft 293 kts 290°
2026-04-27 19:59 20.21695 -102.75411 23434 ft 286 kts 299°
2026-04-27 19:59 20.22820 -102.77131 22967 ft 283 kts 307°
2026-04-27 20:00 20.24055 -102.78719 22488 ft 277 kts 308°
2026-04-27 20:00 20.25284 -102.80286 21858 ft 275 kts 308°
2026-04-27 20:00 20.26474 -102.81850 21177 ft 275 kts 307°
2026-04-27 20:00 20.27643 -102.83444 20489 ft 275 kts 306°
2026-04-27 20:01 20.28772 -102.85049 19841 ft 273 kts 304°
2026-04-27 20:01 20.29840 -102.86700 19220 ft 270 kts 301°
2026-04-27 20:01 20.30841 -102.88381 18572 ft 266 kts 301°
2026-04-27 20:01 20.31829 -102.90004 17825 ft 263 kts 302°
2026-04-27 20:02 20.32855 -102.91588 17055 ft 262 kts 304°
2026-04-27 20:02 20.33900 -102.93130 16243 ft 257 kts 304°
2026-04-27 20:02 20.34956 -102.94656 15324 ft 257 kts 305°
2026-04-27 20:02 20.36015 -102.96176 14387 ft 257 kts 305°
2026-04-27 20:03 20.37053 -102.97669 13491 ft 256 kts 305°
2026-04-27 20:03 20.38099 -102.99179 12618 ft 253 kts 305°
2026-04-27 20:03 20.39131 -103.00672 11767 ft 251 kts 304°
2026-04-27 20:03 20.40028 -103.02213 10970 ft 246 kts 297°
2026-04-27 20:04 20.40715 -103.03837 10196 ft 240 kts 290°
2026-04-27 20:04 20.41313 -103.05450 9746 ft 228 kts 290°
2026-04-27 20:04 20.41887 -103.06976 9349 ft 217 kts 291°
2026-04-27 20:04 20.42454 -103.08438 9024 ft 215 kts 292°
2026-04-27 20:05 20.43057 -103.09938 8757 ft 224 kts 293°
2026-04-27 20:05 20.43679 -103.11427 8534 ft 219 kts 294°
2026-04-27 20:05 20.44308 -103.12891 8275 ft 208 kts 294°
2026-04-27 20:05 20.44899 -103.14233 7982 ft 193 kts 294°
2026-04-27 20:06 20.45462 -103.15506 7710 ft 187 kts 294°
2026-04-27 20:06 20.46017 -103.16760 7454 ft 187 kts 295°
2026-04-27 20:06 20.46561 -103.18012 7203 ft 185 kts 295°
2026-04-27 20:06 20.47095 -103.19240 6956 ft 182 kts 295°
2026-04-27 20:07 20.47626 -103.20452 6718 ft 176 kts 294°
2026-04-27 20:07 20.48138 -103.21624 6491 ft 172 kts 294°
2026-04-27 20:07 20.48627 -103.22778 6275 ft 171 kts 294°
2026-04-27 20:07 20.49115 -103.23934 6067 ft 171 kts 294°
2026-04-27 20:08 20.49606 -103.25082 5857 ft 171 kts 295°
2026-04-27 20:08 20.50103 -103.26232 5654 ft 169 kts 295°
2026-04-27 20:08 20.50599 -103.27357 5466 ft 168 kts 294°
2026-04-27 20:08 20.51075 -103.28490 5240 ft 169 kts 294°
2026-04-27 20:09 20.51549 -103.29615 5029 ft 156 kts 294°
2026-04-27 20:09 20.51937 -103.30533 5021 ft 114 kts 294°
2026-04-27 20:09 20.52199 -103.31158 5021 ft 69 kts 294°
2026-04-27 20:09 20.52301 -103.31403 5021 ft 16 kts 298°
2026-04-27 20:10 20.52371 -103.31486 5021 ft 14 kts 325°
2026-04-27 20:10 20.52438 -103.31535 5021 ft 11 kts 326°
2026-04-27 20:10 20.52512 -103.31584 5021 ft 13 kts 345°
2026-04-27 20:10 20.52591 -103.31558 5021 ft 11 kts 62°
2026-04-27 20:11 20.52578 -103.31480 5021 ft 10 kts 109°
2026-04-27 20:11 20.52556 -103.31414 5021 ft 8 kts 109°
2026-04-27 20:11 20.52535 -103.31348 5021 ft 10 kts 109°
2026-04-27 20:11 20.52508 -103.31265 5021 ft 12 kts 109°
2026-04-27 20:12 20.52476 -103.31169 5021 ft 14 kts 109°
2026-04-27 20:12 20.52453 -103.31097 5021 ft 16 kts 109°
2026-04-27 20:12 20.52399 -103.30931 5021 ft 19 kts 109°
2026-04-27 20:12 20.52350 -103.30782 5021 ft 23 kts 109°
2026-04-27 20:13 20.52296 -103.30615 5021 ft 23 kts 109°
2026-04-27 20:13 20.52245 -103.30456 5021 ft 21 kts 109°
2026-04-27 20:13 20.52197 -103.30308 5021 ft 20 kts 109°
2026-04-27 20:13 20.52152 -103.30169 5021 ft 15 kts 108°
2026-04-27 20:14 20.52136 -103.30102 5021 ft 7 kts 79°
2026-04-27 20:14 20.52182 -103.30070 5021 ft 9 kts 18°
2026-04-27 20:14 20.52251 -103.30045 5021 ft 10 kts 19°
2026-04-27 20:14 20.52316 -103.30020 5021 ft 9 kts 24°
2026-04-27 20:15 20.52324 -103.29965 5021 ft 7 kts 111°
2026-04-27 20:15 20.52306 -103.29914 5021 ft 6 kts 110°
2026-04-27 20:15 20.52291 -103.29870 5021 ft 4 kts 110°
2026-04-27 20:15 20.52276 -103.29852 5021 ft 3 kts 176°
2026-04-27 20:16 20.52252 -103.29862 5021 ft 3 kts 201°
2026-04-27 20:16 20.52233 -103.29870 5021 ft 2 kts 200°
2026-04-27 20:16 20.52231 -103.29871 5021 ft 0 kts 200°